Probability
0 0 0 0 0 0 0 0 0 0 0 0 0 0 1 6 20 41 59 67 66 56 40 26 17 11 8 7 8 8 5 2 2 4 3 1 0 0 0 0 0 0 0 0
0 0 0 0 0 0 0 0 0 0 0 0 0 0 1 5 19 39 57 65 64 56 41 25 14 8 5 4 4 4 3 1 1 1 1 0 0 0 0 0 0 0 0 0
0 0 0 0 0 0 0 0 0 0 0 0 0 0 2 6 19 39 55 62 62 56 43 26 13 6 2 2 1 1 1 0 0 0 0 0 0 0 0 0 0 0 0 0
0 0 0 0 0 0 0 0 0 0 0 0 0 0 2 7 21 40 53 58 58 51 39 25 12 4 1 1 1 0 0 0 0 0 0 0 0 0 0 0 0 0 0 0
0 0 0 0 0 0 0 0 0 0 0 0 0 0 1 7 23 40 50 51 46 37 28 17 7 2 0 0 0 0 0 0 0 0 0 0 0 0 0 0 0 0 0 0
0 0 0 0 0 0 0 0 0 0 0 0 0 0 1 6 23 41 47 41 29 19 13 7 2 0 0 0 0 0 0 0 0 0 0 0 0 0 0 0 0 0 0 0
0 0 0 0 0 0 0 0 0 0 0 0 0 0 0 7 25 42 42 28 15 6 3 1 0 0 0 0 0 0 0 0 0 0 0 0 0 0 0 0 0 0 0 0
0 0 0 0 0 0 0 0 0 0 0 0 0 0 0 8 25 33 26 13 4 1 0 0 0 0 0 0 0 0 0 0 0 0 0 0 0 0 0 0 0 0 0 0
0 0 0 0 0 0 0 0 0 0 0 0 0 0 1 10 22 23 13 4 0 0 0 0 0 0 0 0 0 0 0 0 0 0 0 0 0 0 0 0 0 0 0 0
0 0 0 0 0 0 0 0 0 0 0 0 0 0 3 13 23 21 11 3 1 0 0 0 0 0 0 0 0 0 0 0 0 0 0 0 0 0 0 0 0 0 0 0
0 0 0 0 0 0 0 0 0 0 0 0 0 0 3 13 22 19 9 3 1 0 0 0 0 0 0 0 0 0 0 0 0 0 0 0 0 0 0 0 0 0 0 0
0 0 0 0 0 0 0 0 0 0 0 0 0 0 2 9 13 10 4 1 0 0 0 0 0 0 0 0 0 0 0 0 0 0 0 0 0 0 0 0 0 0 0 0
0 0 0 0 0 0 0 0 0 0 0 0 0 0 1 3 4 3 1 0 0 0 0 0 0 0 0 0 0 0 0 0 0 0 0 0 0 0 0 0 0 0 0 0
0 0 0 0 0 0 0 0 0 0 0 0 0 0 0 1 0 0 0 0 0 0 0 0 0 0 0 0 0 0 0 0 0 0 0 0 0 0 0 0 0 0 0 0
0 0 0 0 0 0 0 0 0 0 0 0 0 0 0 0 0 0 0 0 0 0 0 0 0 0 0 0 0 0 0 0 0 0 0 0 0 0 0 0 0 0 0 0
0 0 0 0 0 0 0 0 0 0 0 0 0 0 0 1 1 1 0 0 0 0 0 0 0 0 0 0 0 0 0 0 0 0 0 0 0 0 0 0 0 0 0 0
0 0 0 0 0 0 0 0 0 0 0 0 0 0 1 2 2 1 0 0 0 0 0 0 0 0 0 0 0 0 0 0 0 0 0 0 0 0 0 0 0 0 0 0
0 0 0 0 0 0 0 0 0 0 0 0 0 2 3 2 1 0 0 0 0 0 0 0 0 0 0 0 0 0 0 0 0 0 0 0 0 0 0 0 0 0 0 0
0 0 0 0 0 0 0 0 0 0 0 0 1 2 2 1 0 0 0 0 0 0 0 0 0 0 0 0 0 0 0 0 0 0 0 0 0 0 0 0 0 0 0 0
0 0 0 0 0 0 0 0 0 0 0 0 0 1 0 0 0 0 0 0 0 0 0 0 0 0 0 0 0 0 0 0 0 0 0 0 0 0 0 0 0 0 0 0
0 0 0 0 0 0 0 0 0 0 0 0 0 0 0 0 0 0 0 0 0 0 0 0 0 0 0 0 0 0 0 0 0 0 0 0 0 0 0 0 0 0 0 0
0 0 0 0 0 0 0 0 0 0 0 0 0 0 0 0 0 0 0 0 0 0 0 0 0 0 0 0 0 0 0 0 0 0 0 0 0 0 0 0 0 0 0 0
0 0 0 0 0 0 0 0 0 0 0 0 0 0 0 0 0 0 0 0 0 0 0 0 0 0 0 0 0 0 0 0 0 0 0 0 0 0 0 0 0 0 0 0
0 0 0 0 0 0 0 0 0 0 0 0 0 0 0 0 0 0 0 0 0 0 0 0 0 0 0 0 0 0 0 0 0 0 0 0 0 0 0 0 0 0 0 0
0 0 0 0 0 0 0 0 0 0 0 0 0 0 0 0 0 0 0 0 0 0 0 0 0 0 0 0 0 0 0 0 0 0 0 0 0 0 0 0 0 0 0 0
0 0 0 0 0 0 0 0 0 0 0 0 0 0 0 0 0 0 0 0 0 0 0 0 0 0 0 0 0 0 0 0 0 0 0 0 0 0 0 0 0 0 0 0
Wind_Speed
4 4 6 8 8 8 6 7 11 15 12 6 6 6 6 10 18 19 18 18 18 15 11 9 7 7 8 7 7 7 7 6 5 4 3 4 4 4 5 5 7 7 7 6
1 8 12 9 7 7 8 10 14 14 9 1 1 2 2 8 15 20 22 20 20 18 14 10 8 7 7 7 8 8 8 8 7 5 4 3 3 4 4 5 6 7 7 7
9 10 8 9 10 10 11 11 13 11 7 3 4 4 4 5 10 15 16 18 18 19 18 14 11 9 9 9 8 9 9 10 9 8 6 5 4 4 5 6 5 7 8 8
8 11 10 9 10 11 13 14 11 10 5 4 4 3 3 4 8 11 13 15 16 17 17 16 14 12 11 11 10 11 11 11 10 8 8 8 6 5 4 3 4 6 7 7
8 8 9 12 15 12 13 16 11 7 4 2 0 4 6 6 8 9 11 14 15 15 16 16 15 14 12 12 11 9 10 9 8 8 8 7 6 4 3 4 5 6 5 6
12 9 8 10 12 11 11 8 2 3 5 2 6 5 7 9 14 16 15 16 16 16 16 15 13 13 12 10 9 8 9 8 7 8 7 8 7 6 5 5 5 5 4 4
11 13 11 8 10 11 4 3 1 3 3 7 5 4 8 8 16 20 20 18 16 15 16 15 14 12 11 9 8 7 8 7 6 7 7 6 6 5 4 3 3 3 3 3
10 12 11 9 11 11 7 10 10 8 7 6 2 3 5 6 16 16 17 17 16 14 14 15 14 12 11 9 8 7 7 6 6 6 5 5 5 3 2 2 2 2 2 3
10 12 10 9 7 8 7 7 10 9 6 3 3 2 4 7 16 18 19 19 17 15 15 15 14 12 10 9 8 8 8 7 6 5 5 4 3 3 2 2 2 2 3 3
6 8 10 9 5 5 8 7 6 7 7 5 4 6 10 14 16 17 18 17 16 15 14 14 13 11 9 8 7 7 8 7 5 4 3 3 2 2 2 2 3 4 4 4
2 3 8 5 5 7 4 2 4 5 6 8 6 10 11 21 21 20 17 17 17 16 15 13 12 10 9 8 8 7 7 6 5 4 3 2 1 1 2 2 3 4 4 5
4 3 3 7 7 6 7 8 7 6 6 6 5 10 6 18 16 17 17 17 16 15 13 13 12 11 9 8 7 6 6 5 3 3 2 1 1 2 3 4 5 4 5 5
4 4 4 10 9 7 3 2 4 5 5 4 4 9 3 10 13 15 17 18 16 15 14 12 11 11 9 8 7 6 5 4 3 2 2 2 3 3 4 5 5 5 5 5
3 2 6 7 7 5 6 7 3 2 3 3 4 3 3 10 12 13 14 14 15 15 14 13 11 9 8 7 6 6 4 3 2 2 2 3 4 4 4 5 4 4 4 4
5 2 5 8 9 8 8 8 5 2 5 6 4 6 8 11 12 12 12 14 15 14 14 14 11 9 7 7 5 4 3 2 2 2 3 3 4 4 4 4 4 4 4 4
5 3 5 5 5 8 11 9 6 4 4 6 7 3 6 10 10 11 13 15 15 13 14 13 12 9 7 6 5 4 2 2 2 2 3 2 3 3 4 4 4 4 4 4
2 2 4 5 7 6 8 7 6 5 5 8 8 9 16 17 16 15 14 14 15 15 14 12 10 8 6 5 4 2 1 2 2 2 2 2 3 4 4 5 4 5 4 4
6 3 2 4 3 8 9 5 5 5 4 7 9 16 18 17 12 10 13 15 15 15 13 11 8 7 5 4 3 2 2 2 2 2 3 3 4 5 5 5 5 5 4 4
8 7 4 3 4 7 4 4 3 3 2 4 17 20 21 23 20 12 12 15 14 13 11 8 7 6 5 4 2 2 3 3 2 3 4 5 5 6 6 6 7 5 3 3
2 4 4 3 4 6 5 6 5 6 2 1 18 23 23 18 12 8 11 16 14 11 8 7 6 6 5 2 2 2 3 3 4 5 6 6 6 6 7 8 6 3 1 2
5 3 3 5 6 8 5 6 3 5 6 5 9 12 9 7 11 15 14 13 12 10 8 7 7 5 3 1 1 1 3 4 6 6 6 7 7 7 7 5 3 3 4 6
3 3 3 3 5 9 4 1 4 6 7 12 11 11 16 20 20 17 14 12 10 9 8 7 6 3 1 1 1 2 4 6 6 6 6 7 7 6 5 5 6 7 7 7
3 4 3 4 6 5 3 3 5 11 15 14 14 16 19 19 18 15 12 10 8 8 6 5 4 2 2 3 3 3 5 5 5 6 6 6 7 8 8 8 7 6 6 5
4 3 3 4 3 1 5 10 12 15 16 16 16 17 17 18 16 14 11 8 6 5 4 3 2 2 3 4 3 3 4 4 4 5 6 6 7 8 7 6 5 5 4 3
5 3 2 1 2 7 8 12 16 16 17 17 16 15 16 17 14 12 9 7 5 4 3 2 2 3 3 2 2 2 2 4 5 6 6 7 6 6 5 5 3 3 1 1
4 3 1 1 0 5 9 12 17 18 17 17 17 15 12 13 12 10 8 5 5 4 2 1 1 1 1 1 1 2 3 4 6 6 7 5 4 4 3 3 3 4 3 6
Wind_Direction
216 156 220 226 214 210 236 268 279 280 286 297 262 221 178 133 121 125 125 126 124 122 119 110 101 94 85 73 64 56 49 37 43 48 49 54 53 45 42 42 37 33 28 25
262 237 228 219 228 234 244 259 270 283 282 250 25 32 121 135 135 138 136 133 131 130 129 125 111 97 89 83 71 62 55 50 52 59 60 66 70 60 55 34 29 26 25 20
211 238 228 221 237 243 251 238 247 253 281 358 87 20 38 63 102 117 123 129 132 133 133 132 123 108 97 87 80 75 69 64 60 60 61 56 42 33 27 21 18 18 25 27
233 243 244 239 238 226 252 248 238 245 251 265 141 186 233 135 107 120 128 132 134 132 130 127 122 114 106 99 89 82 76 71 65 65 67 66 61 46 20 14 18 15 21 26
233 230 227 236 243 233 236 249 234 228 221 268 323 161 238 147 140 147 141 136 133 132 129 127 123 119 112 105 98 90 83 75 70 69 70 69 62 51 32 27 21 12 9 17
236 246 231 233 253 246 240 242 256 62 80 274 249 196 234 192 176 158 148 140 136 133 128 124 121 119 113 106 100 96 89 80 73 70 66 68 66 55 38 20 8 0 353 356
253 260 258 252 271 284 255 171 356 323 331 252 254 224 243 199 162 156 149 144 140 137 135 133 130 126 120 115 111 104 98 89 80 75 70 72 71 59 42 12 359 354 343 333
221 253 247 242 229 239 241 165 174 200 223 260 311 225 279 146 139 140 142 142 142 141 140 138 137 132 128 127 122 115 108 99 86 83 80 71 66 56 30 5 351 337 310 295
200 234 242 236 240 212 225 204 185 164 185 204 241 152 51 113 137 147 150 149 149 148 145 141 137 132 132 131 127 123 114 103 95 95 94 74 61 51 24 358 344 320 305 308
200 237 257 253 255 268 202 190 120 135 166 224 236 203 188 178 170 162 158 154 151 148 147 142 137 134 130 124 117 111 111 111 106 96 89 88 61 39 11 349 329 315 308 308
50 212 287 306 230 238 251 210 157 145 162 178 222 247 205 184 176 167 161 156 153 150 147 141 135 129 121 115 113 111 107 105 103 104 98 81 33 355 343 321 307 302 301 309
15 98 288 273 257 223 210 213 181 178 221 182 190 255 237 177 169 159 154 152 150 146 141 135 129 122 116 115 115 110 104 100 104 106 88 62 334 325 324 312 306 307 309 311
3 68 6 339 337 354 340 279 197 163 154 169 194 269 356 140 147 154 152 151 147 140 133 126 121 120 120 119 114 106 100 95 84 68 45 355 324 320 316 310 310 314 316 320
50 161 181 215 241 282 303 308 310 154 163 195 206 232 129 147 151 154 151 145 140 135 130 124 118 116 114 111 108 104 96 86 63 32 6 335 318 316 315 317 321 320 320 322
45 281 250 240 247 258 267 276 285 248 182 179 194 174 186 171 156 147 137 133 132 131 127 123 119 115 110 104 99 94 79 48 25 6 346 323 319 328 333 335 329 323 322 322
16 343 338 300 270 267 268 265 259 244 202 166 138 141 142 123 116 126 133 134 134 131 127 122 120 116 111 107 99 79 44 355 355 344 327 319 335 339 332 322 316 316 315 309
307 15 359 291 298 305 263 244 230 218 192 163 172 170 144 138 143 143 140 135 134 131 127 122 120 119 117 112 104 74 1 341 350 327 313 309 313 316 311 312 313 307 300 295
198 201 225 259 305 246 252 267 217 192 205 173 150 150 146 131 114 110 123 126 127 126 123 122 123 117 112 104 87 44 359 344 340 320 307 296 293 292 295 300 294 285 278 281
194 182 200 215 233 269 291 342 341 136 325 161 138 133 124 116 95 81 103 114 116 117 121 125 127 121 111 96 68 23 347 334 321 303 291 282 276 278 284 284 278 273 276 299
63 149 182 213 214 240 245 297 302 100 39 80 138 140 141 129 121 134 123 115 114 112 115 118 115 104 96 87 54 23 337 319 295 283 280 280 278 273 273 273 275 277 307 11
354 358 198 213 228 251 254 290 356 135 192 123 127 134 128 103 119 129 124 116 115 113 110 105 97 93 107 118 54 347 313 291 280 284 288 291 288 282 280 291 318 12 52 52
277 272 250 205 215 245 241 169 164 173 121 109 102 99 100 105 113 120 119 116 112 106 97 91 89 97 189 226 209 292 290 280 291 304 310 311 315 324 357 41 48 54 58 50
256 234 251 237 238 268 245 164 134 120 111 108 108 113 117 118 121 120 117 115 106 98 94 94 113 160 254 260 241 266 280 294 318 334 335 344 12 38 53 64 64 58 50 42
265 248 244 269 288 46 104 111 105 106 108 112 118 122 123 120 120 116 113 108 105 108 114 122 144 205 257 273 278 263 286 331 6 358 357 27 60 57 53 57 62 64 51 34
259 256 247 201 110 91 100 110 110 106 106 109 112 115 118 118 117 117 118 121 125 126 130 149 181 223 262 294 301 297 347 28 24 16 30 58 73 71 63 57 48 55 44 46
236 218 169 166 173 113 113 110 111 108 108 111 111 106 109 116 120 121 123 129 129 131 146 177 223 265 330 27 358 358 34 56 50 43 51 64 77 76 67 55 18 354 332 331